Time,TemperatureF,DewpointF,PressureIn,WindDirection,WindDirectionDegrees,WindSpeedMPH,WindSpeedGustMPH,Humidity,HourlyPrecipIn,Conditions,Clouds,dailyrainin,SoftwareType,DateUTC
2013-05-19 00:02:00,67.0,62.0,29.92,SE,139,0.0,0.0,85,0.00,,,0.01,,2013-05-19 05:02:00,
2013-05-19 00:12:00,67.0,62.0,29.92,SE,139,0.0,0.0,85,0.00,,,0.01,,2013-05-19 05:12:00,
2013-05-19 00:22:00,66.0,62.0,29.91,SE,139,0.0,0.0,87,0.00,,,0.01,,2013-05-19 05:22:00,
2013-05-19 00:32:00,65.0,61.0,29.91,SE,139,0.0,0.0,88,0.00,,,0.01,,2013-05-19 05:32:00,
2013-05-19 00:42:00,64.0,61.0,29.91,SE,139,0.0,0.0,90,0.00,,,0.01,,2013-05-19 05:42:00,
2013-05-19 00:51:00,64.0,61.0,29.91,SE,139,0.0,0.0,90,0.00,,,0.01,,2013-05-19 05:51:00,
2013-05-19 01:02:00,64.0,61.0,29.91,SE,139,0.0,1.0,91,0.00,,,0.01,,2013-05-19 06:02:00,
2013-05-19 01:12:00,64.0,61.0,29.91,SE,139,0.0,1.0,91,0.00,,,0.01,,2013-05-19 06:12:00,
2013-05-19 01:21:00,64.0,61.0,29.91,SE,139,0.0,0.0,91,0.00,,,0.01,,2013-05-19 06:21:00,
2013-05-19 01:32:00,63.0,60.0,29.91,SE,139,0.0,0.0,91,0.00,,,0.01,,2013-05-19 06:32:00,
2013-05-19 01:42:00,63.0,60.0,29.91,SE,139,0.0,0.0,91,0.00,,,0.01,,2013-05-19 06:42:00,
2013-05-19 01:52:00,63.0,61.0,29.91,SE,139,0.0,0.0,92,0.00,,,0.01,,2013-05-19 06:52:00,
2013-05-19 02:01:00,63.0,61.0,29.91,SE,139,0.0,0.0,93,0.00,,,0.01,,2013-05-19 07:01:00,
2013-05-19 02:11:00,63.0,61.0,29.91,SE,139,0.0,0.0,93,0.00,,,0.01,,2013-05-19 07:11:00,
2013-05-19 02:21:00,63.0,61.0,29.90,SE,139,0.0,0.0,93,0.00,,,0.01,,2013-05-19 07:21:00,
2013-05-19 02:32:00,62.0,60.0,29.90,SE,139,0.0,0.0,94,0.00,,,0.01,,2013-05-19 07:32:00,
2013-05-19 02:42:00,62.0,60.0,29.90,SE,139,0.0,0.0,94,0.00,,,0.01,,2013-05-19 07:42:00,
2013-05-19 02:52:00,62.0,60.0,29.91,SE,139,0.0,0.0,94,0.00,,,0.01,,2013-05-19 07:52:00,
2013-05-19 03:01:00,62.0,60.0,29.91,SE,139,0.0,0.0,94,0.00,,,0.01,,2013-05-19 08:01:00,
2013-05-19 03:12:00,62.0,60.0,29.91,SE,139,0.0,0.0,94,0.00,,,0.01,,2013-05-19 08:12:00,
2013-05-19 03:22:00,61.0,60.0,29.91,SE,139,0.0,0.0,95,0.00,,,0.01,,2013-05-19 08:22:00,
2013-05-19 03:32:00,61.0,60.0,29.92,SE,139,0.0,0.0,95,0.00,,,0.01,,2013-05-19 08:32:00,
2013-05-19 03:42:00,61.0,60.0,29.92,SE,139,0.0,0.0,95,0.00,,,0.01,,2013-05-19 08:42:00,
2013-05-19 03:52:00,61.0,60.0,29.93,SE,139,0.0,0.0,96,0.00,,,0.01,,2013-05-19 08:52:00,
2013-05-19 04:02:00,62.0,61.0,29.92,SE,139,0.0,1.0,96,0.00,,,0.01,,2013-05-19 09:02:00,
2013-05-19 04:11:00,62.0,61.0,29.92,SE,139,0.0,1.0,96,0.00,,,0.01,,2013-05-19 09:11:00,
2013-05-19 04:21:00,62.0,61.0,29.92,SE,139,0.0,0.0,95,0.00,,,0.01,,2013-05-19 09:21:00,
2013-05-19 04:32:00,61.0,60.0,29.92,SE,139,0.0,1.0,95,0.00,,,0.00,,2013-05-19 09:32:00,
2013-05-19 04:43:00,61.0,60.0,29.92,SE,139,0.0,1.0,95,0.00,,,0.00,,2013-05-19 09:43:00,
2013-05-19 04:53:00,61.0,60.0,29.92,SE,139,0.0,0.0,95,0.00,,,0.00,,2013-05-19 09:53:00,
2013-05-19 05:02:00,61.0,60.0,29.91,SE,139,0.0,1.0,96,0.00,,,0.00,,2013-05-19 10:02:00,
2013-05-19 05:12:00,61.0,60.0,29.91,SE,139,0.0,1.0,96,0.00,,,0.00,,2013-05-19 10:12:00,
2013-05-19 05:23:00,62.0,61.0,29.90,SE,131,0.0,2.0,96,0.00,,,0.00,,2013-05-19 10:23:00,
2013-05-19 05:33:00,62.0,61.0,29.90,SE,131,0.0,2.0,95,0.00,,,0.00,,2013-05-19 10:33:00,
2013-05-19 05:42:00,62.0,61.0,29.90,SE,131,0.0,2.0,95,0.00,,,0.00,,2013-05-19 10:42:00,
2013-05-19 05:52:00,62.0,60.0,29.90,SE,131,0.0,1.0,94,0.00,,,0.00,,2013-05-19 10:52:00,
2013-05-19 06:02:00,62.0,60.0,29.90,SE,131,0.0,2.0,94,0.00,,,0.00,,2013-05-19 11:02:00,
2013-05-19 06:12:00,62.0,60.0,29.90,SE,131,0.0,2.0,94,0.00,,,0.00,,2013-05-19 11:12:00,
2013-05-19 06:21:00,62.0,61.0,29.91,SE,131,0.0,1.0,95,0.00,,,0.00,,2013-05-19 11:21:00,
2013-05-19 06:32:00,62.0,61.0,29.91,SE,131,0.0,3.0,95,0.00,,,0.00,,2013-05-19 11:32:00,
2013-05-19 06:42:00,62.0,61.0,29.91,SE,131,0.0,3.0,95,0.00,,,0.00,,2013-05-19 11:42:00,
2013-05-19 06:52:00,62.0,61.0,29.93,SSE,155,0.0,2.0,95,0.00,,,0.00,,2013-05-19 11:52:00,
2013-05-19 07:01:00,63.0,62.0,29.93,SE,140,1.0,3.0,95,0.00,,,0.00,,2013-05-19 12:01:00,
2013-05-19 07:11:00,63.0,62.0,29.93,SE,140,1.0,3.0,95,0.00,,,0.00,,2013-05-19 12:11:00,
2013-05-19 07:22:00,64.0,62.0,29.94,SSW,205,2.0,4.0,94,0.00,,,0.00,,2013-05-19 12:22:00,
2013-05-19 07:32:00,65.0,63.0,29.94,SSW,205,1.0,4.0,93,0.00,,,0.00,,2013-05-19 12:32:00,
2013-05-19 07:42:00,65.0,63.0,29.94,SSW,205,1.0,4.0,93,0.00,,,0.00,,2013-05-19 12:42:00,
2013-05-19 07:52:00,67.0,65.0,29.94,SSW,203,0.0,2.0,92,0.00,,,0.00,,2013-05-19 12:52:00,
2013-05-19 08:01:00,68.0,65.0,29.93,SSW,203,0.0,2.0,91,0.00,,,0.00,,2013-05-19 13:01:00,
2013-05-19 08:11:00,68.0,65.0,29.93,SSW,203,0.0,2.0,91,0.00,,,0.00,,2013-05-19 13:11:00,
2013-05-19 08:21:00,69.0,65.0,29.92,SSE,164,1.0,3.0,88,0.00,,,0.00,,2013-05-19 13:21:00,
2013-05-19 08:32:00,70.0,66.0,29.92,SE,145,1.0,3.0,87,0.00,,,0.00,,2013-05-19 13:32:00,
2013-05-19 08:42:00,70.0,66.0,29.92,SE,145,1.0,3.0,87,0.00,,,0.00,,2013-05-19 13:42:00,
2013-05-19 08:52:00,71.0,67.0,29.93,SSE,160,0.0,3.0,86,0.00,,,0.00,,2013-05-19 13:52:00,
2013-05-19 09:02:00,72.0,67.0,29.93,SE,134,1.0,3.0,84,0.00,,,0.00,,2013-05-19 14:02:00,
2013-05-19 09:11:00,72.0,67.0,29.93,SE,134,1.0,3.0,84,0.00,,,0.00,,2013-05-19 14:11:00,
2013-05-19 09:21:00,73.0,68.0,29.92,East,85,0.0,2.0,83,0.00,,,0.00,,2013-05-19 14:21:00,
2013-05-19 09:32:00,74.0,67.0,29.93,SE,140,0.0,3.0,79,0.00,,,0.00,,2013-05-19 14:32:00,
2013-05-19 09:42:00,74.0,67.0,29.93,SE,140,0.0,3.0,79,0.00,,,0.00,,2013-05-19 14:42:00,
2013-05-19 09:52:00,76.0,69.0,29.92,SE,136,1.0,4.0,78,0.00,,,0.00,,2013-05-19 14:52:00,
2013-05-19 10:01:00,76.0,68.0,29.92,SSE,157,2.0,4.0,76,0.00,,,0.00,,2013-05-19 15:01:00,
2013-05-19 10:11:00,76.0,68.0,29.92,SSE,157,2.0,4.0,76,0.00,,,0.00,,2013-05-19 15:11:00,
2013-05-19 10:22:00,76.0,68.0,29.91,ESE,123,2.0,5.0,76,0.00,,,0.00,,2013-05-19 15:22:00,
2013-05-19 10:33:00,77.0,68.0,29.89,SSE,167,5.0,9.0,74,0.00,,,0.00,,2013-05-19 15:33:00,
2013-05-19 10:43:00,77.0,68.0,29.89,SSE,167,5.0,9.0,74,0.00,,,0.00,,2013-05-19 15:43:00,
2013-05-19 10:53:00,77.0,68.0,29.89,SE,146,4.0,9.0,73,0.00,,,0.00,,2013-05-19 15:53:00,
2013-05-19 11:03:00,78.0,68.0,29.90,SE,124,3.0,10.0,72,0.00,,,0.00,,2013-05-19 16:03:00,
2013-05-19 11:12:00,78.0,68.0,29.90,SE,124,3.0,10.0,72,0.00,,,0.00,,2013-05-19 16:12:00,
2013-05-19 11:23:00,79.0,68.0,29.90,SE,131,3.0,9.0,68,0.00,,,0.00,,2013-05-19 16:23:00,
2013-05-19 11:32:00,80.0,67.0,29.88,SSE,157,3.0,9.0,65,0.00,,,0.00,,2013-05-19 16:32:00,
2013-05-19 11:42:00,80.0,67.0,29.88,SSE,157,3.0,9.0,65,0.00,,,0.00,,2013-05-19 16:42:00,
2013-05-19 11:52:00,81.0,67.0,29.88,SSE,156,4.0,9.0,62,0.00,,,0.00,,2013-05-19 16:52:00,
2013-05-19 12:02:00,82.0,67.0,29.89,SSE,158,3.0,9.0,60,0.00,,,0.00,,2013-05-19 17:02:00,
2013-05-19 12:12:00,82.0,67.0,29.89,SSE,158,3.0,9.0,60,0.00,,,0.00,,2013-05-19 17:12:00,
2013-05-19 12:22:00,82.0,68.0,29.88,SE,124,3.0,10.0,62,0.00,,,0.00,,2013-05-19 17:22:00,
2013-05-19 12:32:00,83.0,67.0,29.87,East,88,4.0,9.0,59,0.00,,,0.00,,2013-05-19 17:32:00,
2013-05-19 12:42:00,83.0,67.0,29.87,East,88,4.0,9.0,59,0.00,,,0.00,,2013-05-19 17:42:00,
2013-05-19 12:52:00,83.0,66.0,29.87,SE,145,3.0,10.0,57,0.00,,,0.00,,2013-05-19 17:52:00,
2013-05-19 13:02:00,84.0,68.0,29.85,SSE,159,4.0,10.0,58,0.00,,,0.00,,2013-05-19 18:02:00,
2013-05-19 13:12:00,84.0,68.0,29.85,SSE,159,4.0,10.0,58,0.00,,,0.00,,2013-05-19 18:12:00,
2013-05-19 13:22:00,82.0,64.0,29.87,SW,215,6.0,12.0,55,0.00,,,0.00,,2013-05-19 18:22:00,
2013-05-19 13:32:00,82.0,66.0,29.87,SSW,205,4.0,7.0,59,0.00,,,0.00,,2013-05-19 18:32:00,
2013-05-19 13:42:00,82.0,66.0,29.87,SSW,205,4.0,7.0,59,0.00,,,0.00,,2013-05-19 18:42:00,
2013-05-19 13:53:00,83.0,68.0,29.86,SSE,168,4.0,9.0,60,0.00,,,0.00,,2013-05-19 18:53:00,
2013-05-19 14:01:00,83.0,67.0,29.86,SW,234,5.0,9.0,59,0.00,,,0.00,,2013-05-19 19:01:00,
2013-05-19 14:11:00,83.0,67.0,29.86,SW,234,5.0,9.0,59,0.00,,,0.00,,2013-05-19 19:11:00,
2013-05-19 14:22:00,83.0,66.0,29.85,SW,232,6.0,10.0,57,0.00,,,0.00,,2013-05-19 19:22:00,
2013-05-19 14:32:00,84.0,67.0,29.82,South,178,5.0,10.0,57,0.00,,,0.00,,2013-05-19 19:32:00,
2013-05-19 14:42:00,84.0,67.0,29.82,South,178,5.0,10.0,57,0.00,,,0.00,,2013-05-19 19:42:00,
2013-05-19 14:52:00,84.0,65.0,29.84,SSW,192,5.0,9.0,53,0.00,,,0.00,,2013-05-19 19:52:00,
2013-05-19 15:02:00,85.0,66.0,29.84,SSW,200,4.0,10.0,53,0.00,,,0.00,,2013-05-19 20:02:00,
2013-05-19 15:11:00,85.0,66.0,29.84,SSW,200,4.0,10.0,53,0.00,,,0.00,,2013-05-19 20:11:00,
2013-05-19 15:21:00,85.0,66.0,29.82,SSE,157,2.0,7.0,54,0.00,,,0.00,,2013-05-19 20:21:00,
2013-05-19 15:32:00,86.0,66.0,29.80,SSE,160,3.0,9.0,52,0.00,,,0.00,,2013-05-19 20:32:00,
2013-05-19 15:42:00,86.0,66.0,29.80,SSE,160,3.0,9.0,52,0.00,,,0.00,,2013-05-19 20:42:00,
2013-05-19 15:52:00,86.0,65.0,29.80,East,86,5.0,10.0,50,0.00,,,0.00,,2013-05-19 20:52:00,
2013-05-19 16:02:00,87.0,65.0,29.79,SSE,158,4.0,11.0,49,0.00,,,0.00,,2013-05-19 21:02:00,
2013-05-19 16:11:00,87.0,65.0,29.79,SSE,158,4.0,11.0,49,0.00,,,0.00,,2013-05-19 21:11:00,
2013-05-19 16:22:00,87.0,66.0,29.78,SSE,147,4.0,10.0,50,0.00,,,0.00,,2013-05-19 21:22:00,
2013-05-19 16:32:00,87.0,65.0,29.77,East,90,4.0,12.0,48,0.00,,,0.00,,2013-05-19 21:32:00,
2013-05-19 16:43:00,87.0,65.0,29.77,East,90,4.0,12.0,48,0.00,,,0.00,,2013-05-19 21:43:00,
2013-05-19 16:53:00,87.0,64.0,29.78,South,179,5.0,10.0,46,0.00,,,0.00,,2013-05-19 21:53:00,
2013-05-19 17:03:00,87.0,63.0,29.78,SSE,155,3.0,7.0,45,0.00,,,0.00,,2013-05-19 22:03:00,
2013-05-19 17:12:00,87.0,63.0,29.78,SSE,155,3.0,7.0,45,0.00,,,0.00,,2013-05-19 22:12:00,
2013-05-19 17:23:00,88.0,63.0,29.76,SSE,147,6.0,10.0,43,0.00,,,0.00,,2013-05-19 22:23:00,
2013-05-19 17:33:00,88.0,64.0,29.75,SW,222,6.0,10.0,45,0.00,,,0.00,,2013-05-19 22:33:00,
2013-05-19 17:42:00,88.0,64.0,29.75,SW,222,6.0,10.0,45,0.00,,,0.00,,2013-05-19 22:42:00,
2013-05-19 17:53:00,87.0,66.0,29.76,SSE,157,4.0,11.0,50,0.00,,,0.00,,2013-05-19 22:53:00,
2013-05-19 18:02:00,87.0,66.0,29.76,South,181,5.0,9.0,50,0.00,,,0.00,,2013-05-19 23:02:00,
2013-05-19 18:11:00,87.0,66.0,29.76,South,181,5.0,9.0,50,0.00,,,0.00,,2013-05-19 23:11:00,
2013-05-19 18:22:00,86.0,65.0,29.75,SSE,152,6.0,9.0,50,0.00,,,0.00,,2013-05-19 23:22:00,
2013-05-19 18:32:00,86.0,66.0,29.75,SE,136,8.0,11.0,51,0.00,,,0.00,,2013-05-19 23:32:00,
2013-05-19 18:42:00,86.0,66.0,29.75,SE,136,8.0,11.0,51,0.00,,,0.00,,2013-05-19 23:42:00,
2013-05-19 18:52:00,85.0,66.0,29.75,SSE,161,6.0,11.0,53,0.00,,,0.00,,2013-05-19 23:52:00,
2013-05-19 19:02:00,85.0,66.0,29.75,SSE,151,5.0,11.0,54,0.00,,,0.00,,2013-05-20 00:02:00,
2013-05-19 19:11:00,85.0,66.0,29.75,SSE,151,5.0,11.0,54,0.00,,,0.00,,2013-05-20 00:11:00,
2013-05-19 19:21:00,84.0,67.0,29.75,SSE,154,5.0,12.0,56,0.00,,,0.00,,2013-05-20 00:21:00,
2013-05-19 19:32:00,83.0,66.0,29.75,South,169,5.0,9.0,57,0.00,,,0.00,,2013-05-20 00:32:00,
2013-05-19 19:42:00,83.0,66.0,29.75,South,169,5.0,9.0,57,0.00,,,0.00,,2013-05-20 00:42:00,
2013-05-19 19:52:00,83.0,67.0,29.76,SSE,159,3.0,8.0,58,0.00,,,0.00,,2013-05-20 00:52:00,
2013-05-19 20:01:00,82.0,67.0,29.77,SSE,163,2.0,7.0,60,0.00,,,0.00,,2013-05-20 01:01:00,
2013-05-19 20:11:00,82.0,67.0,29.77,SSE,163,2.0,7.0,60,0.00,,,0.00,,2013-05-20 01:11:00,
2013-05-19 20:21:00,81.0,67.0,29.77,SSE,159,3.0,6.0,63,0.00,,,0.00,,2013-05-20 01:21:00,
2013-05-19 20:31:00,80.0,68.0,29.77,SSE,160,3.0,6.0,66,0.00,,,0.00,,2013-05-20 01:31:00,
2013-05-19 20:42:00,80.0,68.0,29.77,SSE,160,3.0,6.0,66,0.00,,,0.00,,2013-05-20 01:42:00,
2013-05-19 20:52:00,79.0,68.0,29.78,SSE,154,2.0,4.0,68,0.00,,,0.00,,2013-05-20 01:52:00,
2013-05-19 21:02:00,78.0,67.0,29.78,SSE,153,2.0,4.0,70,0.00,,,0.00,,2013-05-20 02:02:00,
2013-05-19 21:11:00,78.0,67.0,29.78,SSE,153,2.0,4.0,70,0.00,,,0.00,,2013-05-20 02:11:00,
2013-05-19 21:21:00,78.0,68.0,29.78,SE,142,2.0,4.0,71,0.00,,,0.00,,2013-05-20 02:21:00,
2013-05-19 21:31:00,77.0,67.0,29.78,SSE,153,2.0,4.0,72,0.00,,,0.00,,2013-05-20 02:31:00,
2013-05-19 21:42:00,77.0,67.0,29.78,SSE,153,2.0,4.0,72,0.00,,,0.00,,2013-05-20 02:42:00,
2013-05-19 21:52:00,77.0,68.0,29.78,SE,145,3.0,6.0,73,0.00,,,0.00,,2013-05-20 02:52:00,
2013-05-19 22:01:00,77.0,68.0,29.78,SE,138,3.0,6.0,74,0.00,,,0.00,,2013-05-20 03:01:00,
2013-05-19 22:11:00,77.0,68.0,29.78,SE,138,3.0,6.0,74,0.00,,,0.00,,2013-05-20 03:11:00,
2013-05-19 22:21:00,76.0,68.0,29.78,SSE,159,3.0,6.0,76,0.00,,,0.00,,2013-05-20 03:21:00,
2013-05-19 22:33:00,76.0,68.0,29.78,SE,145,2.0,6.0,77,0.00,,,0.00,,2013-05-20 03:33:00,
2013-05-19 22:42:00,76.0,68.0,29.78,SE,145,2.0,6.0,77,0.00,,,0.00,,2013-05-20 03:42:00,
2013-05-19 22:52:00,76.0,69.0,29.78,SE,144,2.0,5.0,78,0.00,,,0.00,,2013-05-20 03:52:00,
2013-05-19 23:02:00,76.0,69.0,29.77,SSE,150,3.0,7.0,78,0.00,,,0.00,,2013-05-20 04:02:00,
2013-05-19 23:13:00,76.0,69.0,29.77,SSE,150,3.0,7.0,78,0.00,,,0.00,,2013-05-20 04:13:00,
2013-05-19 23:23:00,76.0,69.0,29.77,ESE,114,3.0,8.0,79,0.00,,,0.00,,2013-05-20 04:23:00,
2013-05-19 23:33:00,76.0,69.0,29.77,South,190,3.0,7.0,80,0.00,,,0.00,,2013-05-20 04:33:00,
2013-05-19 23:42:00,76.0,69.0,29.77,South,190,3.0,7.0,80,0.00,,,0.00,,2013-05-20 04:42:00,
2013-05-19 23:53:00,75.0,69.0,29.77,South,181,4.0,6.0,81,0.00,,,0.00,,2013-05-20 04:53:00,